User: anonymous   Login
Location: Unspecified
(0.0000°N, 0.0000°E)
Time: 10:18:22
(UTC+00:00)
Language:

Astrid - Orbit

View from above orbital plane
View from above orbital plane
View from above satellite
View from above satellite

Ground track
Ground track

The orbit data is extracted from the following two-line orbital elements,

1 23464U 95002B   17294.84322365 +.00000073 +00000-0 +63581-4 0  9998
2 23464 082.9306 195.6954 0039817 289.1890 070.4957 13.72532421138737
Epoch (UTC): 21 October 2017 20:14:14
Eccentricity: 0.0039817
inclination: 82.9306°
perigee height: 961 km
apogee height: 1020 km
right ascension of ascending node: 195.6954°
argument of perigee: 289.1890°
revolutions per day: 13.72532421
mean anomaly at epoch: 70.4957°
orbit number at epoch: 13873

The dashed part of the orbit path shows where the satellite is in the earth's shadow,  

DLR